User: anonymous   Login
Location: Unspecified
(0.0000°N, 0.0000°E)
Time: 11:38:22
(UTC+02:00)
Language:

GP-B - Orbit

View from above orbital plane
View from above orbital plane
View from above satellite
View from above satellite

Ground track
Ground track

The orbit data is extracted from the following two-line orbital elements,

1 28230U 04014A   16208.81570885  .00000146  00000-0  17858-4 0  9997
2 28230  89.8626 128.0060 0002002  97.0223 263.1227 14.78445148661024
Epoch (UTC): 26 July 2016 19:34:37
Eccentricity: 0.0002002
inclination: 89.8626°
perigee height: 633 km
apogee height: 635 km
right ascension of ascending node: 128.0060°
argument of perigee: 97.0223°
revolutions per day: 14.78445148
mean anomaly at epoch: 263.1227°
orbit number at epoch: 66102

The dashed part of the orbit path shows where the satellite is in the earth's shadow,  

DLR